Location: Bremen
(53.0793°N, 8.8017°E)
Time: 21:09:39
(UTC+01:00)

S-56A Canister/Altair - Pass Details

Date: 03 December 2021
Orbit: 634 x 2499 km, 38.9° (Epoch: 26 January)

Event Time Altitude Azimuth Distance (km) Brightness Sun altitude
Rises 02:47:12 0° 245° (WSW) 4,369 - -47.6°
Reaches altitude 10° 02:51:15 10° 232° (SW) 3,048 - -47.1°
Maximum altitude 02:56:23 22° 186° (S) 1,927 - -46.4°
Drops below altitude 10° 03:00:27 10° 137° (SE) 2,337 - -45.9°
Sets 03:03:06 0° 120° (ESE) 3,108 - -45.5°
